Date,TemperatureHighF,TemperatureAvgF,TemperatureLowF,DewpointHighF,DewpointAvgF,DewpointLowF,HumidityHigh,HumidityAvg,HumidityLow,PressureMaxIn,PressureMinIn,WindSpeedMaxMPH,WindSpeedAvgMPH,GustSpeedMaxMPH,PrecipitationSumIn
2013-1-1,44.5,37.1,32.0,39.4,34.1,30.1,94,89,80,30.41,30.28,8,2,8,0.00
2013-1-2,47.9,34.3,29.5,41.9,31.3,26.7,95,89,76,30.28,30.12,6,3,6,0.01
2013-1-3,45.0,33.7,26.1,37.5,30.3,24.1,94,88,72,30.13,30.03,7,2,7,0.27
2013-1-4,52.9,43.4,36.4,48.8,41.3,34.5,96,92,82,30.23,30.09,9,2,9,0.04
2013-1-5,45.7,42.4,40.7,44.4,40.6,38.8,95,94,88,30.12,30.04,6,1,6,0.11
2013-1-6,45.2,42.2,39.4,42.6,40.0,37.5,94,92,89,30.11,29.91,10,2,10,0.06
2013-1-7,51.8,46.6,42.1,48.8,44.2,40.2,96,91,86,30.09,29.73,14,4,14,0.08
2013-1-8,50.9,46.7,42.8,49.3,44.8,41.0,96,93,89,30.09,29.65,18,3,18,0.89
2013-1-9,50.4,42.0,33.1,48.7,39.8,31.1,94,92,88,29.88,29.59,12,2,12,1.00
2013-1-10,40.3,35.3,31.1,37.7,33.3,29.2,95,93,90,30.06,29.87,5,1,6,0.01
2013-1-11,40.7,32.5,27.2,32.9,28.2,24.8,93,84,67,30.26,30.04,9,2,9,0.01
2013-1-12,38.7,30.3,25.2,32.6,27.0,23.0,94,87,71,30.37,30.25,8,3,8,0.01
2013-1-13,39.8,30.5,26.3,34.1,27.5,24.1,93,89,73,30.44,30.35,6,2,6,0.00
2013-1-14,40.0,32.0,26.3,33.9,28.9,24.0,93,88,74,30.50,30.40,6,2,6,0.00
2013-1-15,43.6,34.6,29.3,38.6,31.8,27.4,93,89,76,30.64,30.50,6,2,6,0.00
2013-1-16,42.8,32.7,27.7,38.7,30.4,25.9,95,91,84,30.61,30.45,6,3,6,0.01
2013-1-17,39.4,35.1,29.9,37.5,33.3,28.1,95,93,90,30.45,30.23,5,2,5,0.00
2013-1-18,42.1,36.4,33.8,39.4,34.4,32.5,95,93,89,30.28,30.19,5,1,5,0.00
2013-1-19,39.2,36.8,35.1,36.6,34.7,33.2,94,92,89,30.32,30.28,6,1,6,0.00
2013-1-20,42.5,38.0,33.7,39.3,35.9,31.5,95,92,87,30.32,30.20,6,2,6,0.00
2013-1-21,40.3,37.5,34.9,37.4,35.4,32.8,94,92,88,30.21,30.07,5,1,5,0.00
2013-1-22,42.3,36.3,32.2,38.6,34.0,30.3,94,91,87,30.07,29.84,4,1,4,0.00
2013-1-23,42.7,40.3,36.7,40.8,38.2,34.6,95,92,89,30.06,29.77,6,2,6,0.19
2013-1-24,46.3,41.2,37.4,43.1,39.1,35.4,94,92,86,30.13,29.98,6,1,6,0.21
2013-1-25,52.9,44.9,35.6,48.8,42.4,33.5,95,91,80,29.99,29.85,8,1,8,0.04
2013-1-26,47.5,42.4,37.4,43.2,39.8,35.8,95,90,84,29.96,29.80,10,2,10,0.23
2013-1-27,41.8,40.4,38.2,38.8,38.0,35.7,93,91,89,29.96,29.90,7,1,7,0.00
2013-1-28,43.6,40.2,37.1,41.1,38.2,34.9,94,92,91,30.01,29.92,5,1,5,0.11
2013-1-29,50.0,44.4,40.7,47.3,42.5,38.9,96,93,90,30.27,30.01,8,1,8,0.11
2013-1-30,48.4,46.5,44.8,47.1,44.9,42.9,95,94,93,30.31,30.24,3,0,3,0.09
2013-1-31,49.5,46.9,45.0,46.4,45.0,43.4,95,93,88,30.32,30.21,12,2,12,0.07
2013-2-1,51.7,46.0,39.1,47.8,43.5,36.7,95,91,83,30.34,30.26,7,1,7,0.07
2013-2-2,46.4,43.0,40.7,42.9,40.6,38.4,94,91,86,30.32,30.19,6,1,6,0.00
2013-2-3,50.0,44.3,40.7,45.9,41.8,38.8,94,91,85,30.23,30.14,5,1,5,0.02
2013-2-4,53.6,46.3,42.1,47.0,42.6,39.2,93,87,73,30.15,29.83,6,1,6,0.00
2013-2-5,51.3,44.9,40.1,45.5,42.0,37.4,93,89,77,29.87,29.75,12,3,12,0.27
2013-2-6,50.0,44.6,42.1,44.8,41.9,40.2,94,90,80,29.98,29.72,8,2,8,0.31
2013-2-7,56.5,42.9,34.2,46.9,38.4,31.7,93,85,62,30.13,29.72,10,3,10,0.09
2013-2-8,48.1,39.8,31.1,41.7,36.1,29.2,95,87,76,30.24,30.13,8,1,8,0.01
2013-2-9,49.3,46.1,42.3,43.4,41.6,39.9,91,84,78,30.28,30.19,5,1,5,0.01
2013-2-10,45.7,43.3,39.2,42.2,40.2,36.5,94,89,85,30.32,30.28,4,1,4,0.00
2013-2-11,49.7,46.2,40.0,44.8,42.1,38.1,94,86,76,30.29,30.26,9,1,9,0.00
2013-2-12,51.8,47.1,44.3,47.1,44.4,41.8,94,90,82,30.34,30.20,12,2,12,0.01
2013-2-13,50.4,46.6,43.2,45.9,43.4,40.2,92,88,83,30.45,30.21,14,1,14,0.01
2013-2-14,50.0,46.3,42.8,46.5,43.8,40.4,93,91,87,30.50,30.44,6,1,6,0.00
2013-2-15,57.2,46.7,38.5,50.4,42.6,35.8,93,86,76,30.49,30.12,6,1,6,0.00
2013-2-16,58.0,46.4,36.4,47.0,41.4,34.2,95,83,58,30.14,30.04,12,2,12,0.02
2013-2-17,45.9,40.5,35.8,41.7,36.8,32.9,90,87,81,30.19,30.05,6,1,6,0.02
2013-2-18,49.3,41.4,35.8,42.0,36.9,33.1,94,85,71,30.05,29.71,10,1,10,0.00
2013-2-19,54.4,43.1,36.5,45.2,38.0,33.5,93,83,61,29.85,29.67,9,2,9,0.02
2013-2-20,47.2,42.7,32.8,41.8,39.1,29.9,94,87,78,29.98,29.92,9,1,9,0.07
2013-2-21,45.2,42.6,39.8,41.1,39.5,37.1,93,89,83,30.01,29.94,16,2,16,0.02
2013-2-22,47.0,41.9,37.4,44.6,38.8,34.2,93,89,84,29.97,29.62,15,5,15,0.58
2013-2-23,51.5,41.7,32.9,43.5,37.1,30.6,94,84,70,30.32,29.83,10,0,10,0.00
2013-2-24,50.0,44.6,38.7,42.0,38.4,35.1,88,79,70,30.32,29.89,13,2,13,0.05
2013-2-25,54.4,43.5,33.1,41.4,36.2,28.8,91,77,46,30.25,29.81,13,4,13,0.16
2013-2-26,49.5,41.1,32.2,39.6,35.1,28.5,92,80,64,30.28,30.13,8,2,8,0.03
2013-2-27,50.8,44.2,38.0,45.2,40.5,35.2,93,87,78,30.24,30.13,8,1,8,0.17
2013-2-28,54.0,49.1,43.2,51.5,46.9,41.0,94,92,90,30.26,30.12,9,0,9,0.48
2013-3-1,58.3,52.9,50.9,54.3,50.5,48.4,94,92,86,30.29,30.21,10,1,10,0.42
2013-3-2,58.3,50.8,40.1,52.0,46.6,36.4,91,86,76,30.21,29.99,14,2,14,0.01
2013-3-3,55.1,41.1,31.3,43.7,35.4,29.1,93,81,58,30.24,30.14,8,2,8,0.01
2013-3-4,57.4,41.4,31.3,41.9,33.7,28.7,93,76,44,30.24,29.86,9,2,9,0.00
2013-3-5,53.8,42.8,34.9,44.7,37.7,30.8,88,82,68,29.86,29.66,7,2,7,0.06
2013-3-6,45.9,42.8,39.8,42.3,39.9,36.8,92,89,86,29.83,29.51,5,1,5,0.23
2013-3-7,56.3,46.2,37.8,47.4,41.6,35.1,93,85,66,30.03,29.82,10,2,10,0.09
2013-3-8,49.7,42.1,37.8,40.5,39.2,33.7,93,90,68,30.15,30.01,5,1,5,0.00
2013-3-9,58.5,46.1,31.7,48.3,40.4,29.1,94,81,67,30.43,30.21,7,3,7,0.00
2013-3-10,49.1,42.6,34.2,44.1,39.0,31.2,93,87,79,30.42,30.36,8,2,8,0.03
2013-3-11,54.0,45.0,41.6,46.6,41.9,39.2,93,89,76,30.37,30.09,4,1,4,0.04
2013-3-12,55.6,51.7,47.9,52.4,49.1,45.5,94,91,86,30.09,29.99,10,0,10,0.37
2013-3-13,54.9,51.2,49.0,51.5,48.7,46.3,94,91,87,30.12,30.01,14,2,14,0.04
2013-3-14,56.0,50.3,47.5,49.0,46.8,45.3,94,88,71,30.08,29.94,9,1,9,0.08
2013-3-15,54.2,48.3,47.2,51.0,44.8,43.8,94,88,86,30.12,30.00,6,2,9,0.00
2013-3-16,49.0,38.4,32.2,45.3,35.1,29.4,90,88,86,30.05,29.90,9,2,9,0.00
2013-3-17,39.8,39.2,38.9,35.9,34.5,34.1,86,83,81,30.10,30.04,8,2,8,0.00
2013-3-18,43.6,36.5,35.5,39.6,32.3,31.5,88,85,75,30.18,30.05,7,3,7,0.00
2013-3-19,54.4,41.6,35.5,43.7,38.6,31.6,92,89,65,30.16,29.38,6,1,7,0.20
2013-3-20,52.7,47.7,37.1,49.5,43.1,32.2,94,84,66,29.95,29.30,14,4,16,0.50
2013-3-21,53.1,40.4,34.0,41.4,35.3,30.4,88,82,59,30.15,29.95,10,2,10,0.26
2013-3-22,54.5,38.8,32.0,39.7,32.3,27.8,92,79,52,30.32,30.15,6,2,6,0.01
2013-3-23,53.8,39.3,31.7,40.6,32.6,27.6,91,78,49,30.33,30.24,9,3,9,0.00
2013-3-24,59.2,41.3,30.1,45.6,34.4,26.6,92,78,52,30.24,30.06,6,2,6,0.00
2013-3-25,65.9,47.1,32.6,45.6,37.0,29.4,90,70,38,30.06,29.87,6,3,6,0.00
2013-3-26,61.2,51.0,44.1,45.8,41.0,36.9,81,69,53,29.96,29.90,5,2,5,0.00
2013-3-27,58.9,50.7,42.1,48.8,43.5,37.9,86,77,63,29.93,29.88,6,2,6,0.00
2013-3-28,65.0,49.7,41.9,54.3,45.2,38.2,93,85,64,30.03,29.93,5,2,5,0.11
2013-3-29,67.0,53.0,42.7,52.4,45.6,39.7,93,77,57,30.19,30.09,5,2,5,0.01
2013-3-30,66.6,50.2,38.7,52.7,43.3,36.0,94,78,53,30.19,30.01,8,3,8,0.00
2013-3-31,73.4,54.2,42.1,52.8,45.0,38.3,89,73,48,30.01,29.85,7,3,7,0.00
2013-4-1,66.6,53.8,47.2,51.7,46.6,42.3,90,78,54,30.09,29.91,10,2,10,0.00
2013-4-2,62.3,52.9,46.4,50.9,46.0,42.0,86,78,64,30.13,30.09,10,2,10,0.00
2013-4-3,63.7,57.5,48.6,51.3,47.9,43.3,90,71,60,30.10,29.89,5,2,5,0.00
2013-4-4,54.9,51.3,47.3,52.4,47.8,43.0,92,88,82,29.89,29.58,11,2,11,0.45
2013-4-5,58.1,53.3,48.8,52.9,49.5,46.1,93,87,75,29.80,29.66,14,4,14,1.22
2013-4-6,57.1,49.8,45.4,50.2,45.8,42.4,92,86,75,29.87,29.65,12,3,12,0.73
2013-4-7,48.6,44.9,40.7,44.9,42.0,38.0,91,89,84,29.83,29.46,9,2,9,0.99
2013-4-8,60.8,49.3,42.1,50.7,44.6,39.7,93,84,67,30.21,29.83,7,1,7,0.02
2013-4-9,58.0,48.4,41.2,47.2,42.6,38.3,92,81,58,30.28,30.13,8,1,10,0.02
2013-4-10,65.9,51.8,46.1,55.2,46.3,39.3,93,82,63,30.19,29.88,13,3,15,0.44
2013-4-11,62.3,47.8,43.7,47.6,41.2,36.6,88,79,54,30.25,30.13,7,1,7,0.02
2013-4-12,47.9,43.7,39.6,43.4,39.5,35.5,92,85,73,30.13,29.62,11,3,11,0.24
2013-4-13,58.0,44.7,32.8,45.3,38.6,30.3,93,80,55,29.94,29.69,15,3,15,0.02
2013-4-14,60.5,46.2,36.7,45.2,39.0,33.1,92,77,49,29.95,29.87,10,2,10,0.00
2013-4-15,65.3,47.5,35.8,49.4,39.7,31.8,92,76,53,30.12,29.89,11,2,11,0.00
2013-4-16,63.9,46.7,33.5,48.8,38.2,30.4,92,74,51,30.34,30.12,19,3,19,0.00
2013-4-17,67.3,49.9,34.7,47.5,39.4,30.9,91,70,39,30.40,30.33,9,2,9,0.00
2013-4-18,53.3,48.2,42.1,47.7,43.0,36.1,90,82,74,30.39,30.14,12,2,12,0.05
2013-4-19,59.8,52.0,47.9,55.4,48.9,44.8,92,89,84,30.14,29.99,10,2,10,0.59
2013-4-20,63.0,52.0,42.8,51.4,46.3,40.4,94,81,63,30.21,30.13,10,2,10,0.01
2013-4-21,57.1,48.9,40.7,47.3,42.7,36.0,86,79,65,30.31,30.17,9,2,9,0.02
2013-4-22,70.9,50.5,35.8,50.4,39.0,30.9,93,68,29,30.47,30.31,10,4,10,0.01
2013-4-23,72.2,50.1,32.0,49.2,36.8,27.8,88,63,33,30.37,30.19,7,3,7,0.00
2013-4-24,76.1,55.2,37.4,50.0,41.1,33.6,88,62,34,30.26,30.01,6,3,6,0.00
2013-4-25,76.5,51.3,40.0,49.1,40.6,35.1,85,69,33,30.09,29.98,6,2,6,0.00
2013-4-26,72.0,56.3,45.7,53.9,47.0,40.0,90,73,52,30.20,30.09,7,2,7,0.00
2013-4-27,58.5,53.5,50.0,49.3,45.9,42.0,83,75,69,30.17,30.08,15,3,15,0.00
2013-4-28,64.8,51.1,44.8,50.1,44.7,41.1,89,80,50,30.16,29.97,15,2,15,0.03
2013-4-29,65.5,52.9,46.1,46.0,41.4,38.1,88,66,49,30.07,29.97,8,3,8,0.01
2013-4-30,66.6,56.4,37.4,44.9,39.2,32.6,85,54,41,30.39,30.17,6,2,6,0.00
2013-5-1,73.4,51.1,33.5,48.2,37.3,29.1,88,63,34,30.51,30.38,7,2,7,0.00
2013-5-2,72.5,55.2,39.2,52.7,42.5,33.7,83,64,34,30.49,30.32,7,3,7,0.00
2013-5-3,75.8,58.3,45.7,56.1,46.9,39.1,84,67,44,30.33,30.17,9,3,9,0.00
2013-5-4,87.8,63.7,48.2,57.2,48.3,39.8,82,61,26,30.18,29.94,11,2,11,0.00
2013-5-5,86.6,65.6,49.1,56.4,48.6,42.2,78,57,31,29.94,29.72,6,2,6,0.00
2013-5-6,92.5,67.7,48.8,58.9,50.2,44.0,86,58,25,29.80,29.70,6,2,6,0.00
2013-5-7,80.8,62.0,51.7,58.1,51.0,45.9,86,69,44,29.96,29.78,10,2,10,0.00
2013-5-8,71.8,58.4,51.3,55.1,49.7,45.5,86,74,55,30.09,29.96,8,1,8,0.00
2013-5-9,74.2,56.7,46.1,57.5,49.4,42.0,90,78,53,30.17,30.06,6,2,6,0.00
2013-5-10,81.2,61.7,45.7,59.2,51.1,42.4,91,70,45,30.15,30.05,6,2,6,0.01
2013-5-11,88.0,64.8,51.3,60.0,51.3,46.0,84,64,34,30.12,29.93,8,1,8,0.00
2013-5-12,75.4,63.2,57.1,60.5,55.2,49.5,88,76,54,30.04,29.96,9,2,9,0.04
2013-5-13,67.0,57.5,48.2,58.2,51.0,42.3,88,79,63,30.14,29.88,16,3,16,0.59
2013-5-14,71.3,56.3,45.4,52.9,45.7,41.3,90,69,44,30.17,30.06,11,3,11,0.00
2013-5-15,66.2,54.7,43.2,52.2,47.0,39.2,90,76,51,30.07,29.96,15,2,15,0.04
2013-5-16,76.1,62.4,52.9,59.3,52.9,49.1,89,73,52,29.96,29.82,7,2,7,0.01
2013-5-17,68.4,58.6,50.9,54.0,50.0,44.1,89,74,53,30.01,29.89,10,3,10,0.03
2013-5-18,69.8,57.2,48.8,51.8,48.4,43.9,88,73,51,30.22,30.00,9,2,9,0.00
2013-5-19,71.3,58.9,50.0,57.4,50.3,44.4,89,74,57,30.36,30.22,6,2,6,0.00
2013-5-20,68.6,52.7,43.4,54.6,46.1,39.8,90,79,57,30.31,29.85,6,2,6,0.00
2013-5-21,67.0,52.5,46.8,53.5,46.1,42.6,89,79,53,29.86,29.71,11,1,11,0.83
2013-5-22,58.7,49.7,45.2,50.8,45.3,41.0,91,85,73,29.88,29.79,8,2,8,0.23
2013-5-23,59.8,49.0,44.3,48.4,44.2,41.0,92,84,63,29.96,29.87,8,1,8,0.12
2013-5-24,72.2,56.1,45.2,55.3,47.6,42.2,91,75,46,30.00,29.92,10,2,10,0.01
2013-5-25,70.2,57.3,48.4,52.4,48.0,43.9,88,73,47,29.99,29.92,8,1,8,0.01
2013-5-26,68.8,56.7,50.0,57.5,50.4,46.1,90,80,63,29.93,29.89,11,1,11,0.10
2013-5-27,63.0,55.6,49.0,57.7,51.3,44.7,91,86,81,29.91,29.65,6,1,6,0.46
2013-5-28,67.9,59.9,52.9,56.9,51.1,46.6,90,73,61,29.82,29.71,11,3,11,0.01
2013-5-29,66.8,55.3,49.9,54.7,49.0,45.9,90,80,57,29.91,29.63,8,1,8,0.24
2013-5-30,68.0,60.4,48.6,52.7,49.2,44.6,86,67,55,30.14,29.91,15,4,15,0.00
2013-5-31,70.6,59.7,49.3,55.3,48.8,43.8,90,68,51,30.29,30.19,5,2,5,0.00
2013-6-1,77.0,59.4,49.0,55.5,48.4,44.0,87,69,47,30.19,30.00,5,2,5,0.00
2013-6-2,73.6,58.1,52.9,55.7,49.9,47.0,86,75,52,30.05,29.99,5,1,5,0.02
2013-6-3,77.9,61.1,50.8,58.4,51.8,46.4,90,73,47,30.07,30.01,6,1,6,0.00
2013-6-4,84.6,64.2,48.2,60.2,52.2,44.6,91,68,39,30.08,29.97,5,1,5,0.00
2013-6-5,81.7,73.1,59.0,61.9,57.4,50.9,75,59,48,30.04,29.98,6,2,6,0.00
2013-6-6,82.3,65.9,50.4,59.3,52.8,46.1,88,65,41,30.01,29.96,6,2,6,0.00
2013-6-7,74.2,62.3,53.1,58.5,52.0,47.0,85,70,53,30.10,29.97,11,2,11,0.00
2013-6-8,76.3,62.2,54.9,57.2,51.0,48.0,79,67,49,30.14,30.05,6,2,6,0.00
2013-6-9,79.4,60.4,51.3,60.0,49.7,44.2,84,69,46,30.07,29.98,6,2,6,0.00
2013-6-10,75.1,61.7,47.9,55.5,48.7,42.3,84,64,47,29.99,29.83,8,2,8,0.00
2013-6-11,73.3,60.4,51.3,51.8,47.1,43.8,81,63,39,30.05,29.89,13,4,13,0.00
2013-6-12,74.7,60.0,46.8,52.9,47.9,42.2,89,66,40,30.09,30.04,11,3,11,0.00
2013-6-13,76.7,61.5,51.5,57.0,50.1,45.5,86,67,47,30.17,30.08,7,1,7,0.00
2013-6-14,73.1,59.8,51.5,56.5,49.7,45.5,81,70,51,30.18,30.01,9,2,9,0.00
2013-6-15,77.9,62.7,47.0,58.1,51.4,43.2,91,69,47,30.01,29.87,7,3,7,0.00
2013-6-16,80.3,64.5,50.9,60.2,53.2,46.8,91,69,48,30.04,29.93,13,2,13,0.00
2013-6-17,86.4,65.4,53.1,59.9,52.7,47.4,87,67,33,30.04,29.85,11,2,11,0.01
2013-6-18,83.2,66.0,53.5,56.0,50.5,46.4,90,61,29,29.93,29.83,11,3,11,0.01
2013-6-19,75.8,61.0,53.6,57.2,52.0,46.5,86,73,49,29.95,29.85,8,1,8,0.04
2013-6-20,68.9,59.2,53.8,55.4,51.5,48.2,86,76,57,30.06,29.88,10,2,10,0.07
2013-6-21,78.8,60.4,53.6,58.8,52.3,48.0,91,77,42,30.11,30.05,5,2,5,0.00
2013-6-22,85.3,65.3,49.5,59.7,52.4,45.6,90,66,35,30.07,29.80,6,2,6,0.00
2013-6-23,74.0,65.9,57.6,62.4,58.0,51.7,87,76,63,29.79,29.55,5,1,5,0.26
2013-6-24,71.6,61.1,57.2,58.3,56.6,53.7,90,85,62,29.60,29.52,12,2,12,0.05
2013-6-25,82.4,65.5,55.6,62.9,56.1,51.8,90,74,44,29.80,29.62,10,2,10,0.50
2013-6-26,77.4,65.1,56.3,64.8,57.8,52.4,91,78,58,30.03,29.79,11,1,11,0.15
2013-6-27,70.7,62.6,58.0,63.5,58.0,54.1,91,85,76,30.14,29.99,4,1,4,0.23
2013-6-28,86.0,76.7,63.7,66.7,62.6,57.8,83,63,50,30.05,29.98,5,2,5,0.00
2013-6-29,88.9,71.4,60.1,66.3,60.1,56.2,91,70,43,30.05,29.93,5,2,5,0.00
2013-6-30,93.8,67.5,56.9,67.2,58.3,52.7,89,74,42,29.96,29.80,6,2,6,0.00
2013-7-1,91.4,78.6,61.0,66.8,62.5,56.5,87,59,43,29.97,29.86,5,1,5,0.00
2013-7-2,88.9,67.8,58.7,64.4,57.5,52.6,88,72,36,30.06,29.97,5,2,5,0.00
2013-7-3,88.0,66.9,57.1,62.6,54.0,50.2,82,65,40,30.10,29.99,7,2,7,0.00
2013-7-4,75.4,62.7,56.9,57.6,54.0,51.1,83,74,54,30.07,29.97,7,2,8,0.00
2013-7-5,79.6,66.4,54.4,60.2,55.4,49.8,88,70,50,29.98,29.90,9,2,9,0.00
2013-7-6,87.8,66.4,53.5,60.5,54.7,49.2,91,69,38,29.93,29.81,5,2,5,0.00
2013-7-7,86.6,67.2,53.5,64.3,56.7,49.1,91,71,45,29.89,29.82,9,2,9,0.00
2013-7-8,83.9,66.7,55.8,62.7,56.0,50.2,87,70,47,30.03,29.89,6,2,7,0.00
2013-7-9,82.4,64.7,54.7,60.2,54.9,50.9,89,72,45,30.06,29.94,4,2,4,0.00
2013-7-10,79.2,63.4,55.1,62.5,54.2,49.1,88,73,51,30.02,29.89,8,2,8,0.00
2013-7-11,79.7,63.4,54.4,57.8,51.1,48.0,82,66,39,30.03,29.93,6,2,6,0.00
2013-7-12,72.2,60.2,51.8,56.4,50.4,46.1,83,71,55,30.05,29.96,7,1,7,0.00
2013-7-13,79.6,63.0,46.4,58.6,50.8,42.8,89,67,42,30.15,30.05,5,2,5,0.00
2013-7-14,83.9,65.7,48.4,58.1,51.4,44.1,87,63,39,30.08,29.93,6,2,6,0.00
2013-7-15,87.7,63.8,51.5,63.6,51.4,46.5,86,67,40,29.99,29.84,8,2,8,0.00
2013-7-16,87.7,68.6,54.7,60.5,53.7,46.9,77,61,37,29.84,29.75,6,3,6,0.00
2013-7-17,75.4,64.0,57.6,57.2,54.7,50.4,81,72,53,30.14,29.81,9,3,9,0.00
2013-7-18,84.4,70.3,55.4,61.3,56.2,50.0,84,62,45,30.17,30.07,5,2,5,0.00
2013-7-19,82.1,64.7,52.6,62.2,55.1,48.2,89,72,50,30.11,29.98,5,2,5,0.00
2013-7-20,81.5,65.4,54.5,63.3,55.8,49.8,90,73,49,30.04,29.89,8,2,8,0.00
2013-7-21,84.2,66.6,55.1,63.9,56.6,50.7,89,72,48,29.93,29.84,8,2,8,0.00
2013-7-22,83.5,63.4,56.5,62.3,55.4,52.8,88,76,45,30.01,29.88,7,2,7,0.00
2013-7-23,85.7,65.9,52.7,62.6,54.2,49.0,91,69,40,30.02,29.91,5,2,5,0.00
2013-7-24,85.7,67.3,53.6,62.5,54.3,49.5,88,66,35,30.00,29.93,5,3,6,0.00
2013-7-25,86.0,61.4,51.1,59.7,51.1,46.6,86,71,40,30.03,29.97,6,2,6,0.00
2013-7-26,85.1,68.9,52.2,59.8,53.9,47.5,87,61,40,30.09,30.02,5,2,5,0.00
2013-7-27,83.2,64.3,49.5,59.2,51.8,44.5,89,66,38,30.11,29.93,8,2,8,0.00
2013-7-28,75.4,60.8,53.6,58.3,52.6,47.8,88,75,54,29.97,29.90,11,2,11,0.00
2013-7-29,84.1,64.6,50.4,61.0,53.3,46.3,90,69,42,29.95,29.89,6,2,6,0.00
2013-7-30,85.1,65.6,54.0,62.4,55.0,49.0,89,71,44,30.08,29.95,7,2,10,0.00
2013-7-31,73.1,61.9,55.8,61.5,55.6,51.3,89,80,65,30.07,29.93,7,2,7,0.00
2013-8-1,76.1,63.6,55.8,59.3,54.9,51.7,88,74,53,30.01,29.96,10,3,10,0.00
2013-8-2,67.3,60.9,57.8,59.3,56.0,53.3,89,84,72,30.07,29.99,7,1,7,0.09
2013-8-3,83.0,66.5,58.0,63.6,57.6,52.5,91,75,47,30.07,29.99,7,2,7,0.00
2013-8-4,84.2,66.7,53.3,63.0,56.5,50.1,91,72,47,30.00,29.88,6,3,6,0.00
2013-8-5,85.5,67.3,54.2,64.2,56.7,50.4,90,71,46,29.96,29.87,5,2,5,0.00
2013-8-6,85.3,64.6,51.8,61.8,54.6,47.7,90,72,43,29.96,29.85,6,2,6,0.00
2013-8-7,88.9,75.2,53.1,64.4,57.3,49.6,89,56,39,29.93,29.89,5,2,5,0.00
2013-8-8,82.4,66.4,56.3,63.4,56.6,51.4,89,72,48,29.98,29.88,7,2,7,0.00
2013-8-9,85.5,65.7,54.4,63.4,56.1,50.4,90,73,45,29.90,29.78,6,2,6,0.00
2013-8-10,65.3,61.0,58.3,58.8,56.9,54.7,90,86,79,29.95,29.83,9,2,9,0.17
2013-8-11,80.5,69.3,57.4,60.2,56.5,52.8,87,65,47,30.01,29.92,6,2,6,0.00
2013-8-12,88.0,66.9,58.7,61.2,55.7,52.6,84,69,36,30.01,29.93,7,1,7,0.00
2013-8-13,85.5,61.7,53.3,61.8,53.9,49.1,89,77,44,30.04,29.86,5,2,5,0.00
2013-8-14,84.6,68.8,53.1,63.7,57.9,49.1,88,71,43,29.89,29.83,8,2,8,0.04
2013-8-15,74.3,67.0,60.7,67.0,61.9,56.8,90,84,74,29.93,29.85,6,1,6,0.05
2013-8-16,90.4,78.2,60.1,67.3,61.6,53.6,92,59,34,29.95,29.87,6,2,6,0.01
2013-8-17,84.1,70.7,59.6,64.1,58.6,52.9,82,67,47,30.02,29.94,8,3,8,0.00
2013-8-18,81.0,65.7,56.7,61.5,55.9,51.6,90,72,49,30.06,30.01,9,2,9,0.00
2013-8-19,83.2,65.5,52.6,62.4,55.1,48.8,91,71,47,30.04,30.00,5,2,5,0.00
2013-8-20,79.9,67.1,54.0,60.9,53.9,46.6,83,64,43,30.11,30.01,6,3,6,0.00
2013-8-21,82.3,64.5,49.0,62.2,52.6,44.9,91,68,44,30.03,29.88,10,3,10,0.00
2013-8-22,85.5,69.9,52.0,61.4,55.1,47.4,87,62,40,29.88,29.74,5,2,5,0.00
2013-8-23,79.7,68.0,61.2,60.7,56.8,54.2,83,69,48,29.82,29.76,12,3,12,0.00
2013-8-24,77.8,65.6,55.8,60.8,56.0,50.0,87,72,53,29.86,29.79,8,2,8,0.00
2013-8-25,74.2,62.0,50.8,58.7,53.2,47.4,90,74,55,29.88,29.80,5,2,5,0.00
2013-8-26,79.4,66.6,58.3,61.7,55.6,52.2,82,69,41,29.89,29.78,10,2,10,0.00
2013-8-27,82.3,67.7,58.7,63.4,57.8,53.6,88,72,50,29.89,29.72,6,1,6,0.00
2013-8-28,83.9,74.2,59.0,67.4,62.1,55.0,90,67,52,29.83,29.78,5,2,5,0.13
2013-8-29,74.2,65.4,61.2,66.6,60.9,57.1,91,85,73,29.92,29.78,6,1,6,1.00
2013-8-30,85.9,69.6,56.9,63.4,57.4,51.5,93,68,40,30.08,30.02,6,2,6,0.00
2013-8-31,79.9,63.6,52.9,62.0,55.1,49.8,92,76,50,30.02,29.78,6,2,6,0.00
2013-9-1,86.2,63.4,53.8,64.9,55.7,50.7,93,78,44,29.82,29.72,6,2,6,0.00
2013-9-2,82.8,68.0,56.3,63.7,57.3,52.4,90,71,43,29.87,29.79,7,2,7,0.00
2013-9-3,77.4,65.7,59.2,64.4,59.5,53.5,92,81,63,29.95,29.88,4,2,4,0.23
2013-9-4,72.9,65.8,56.5,63.6,59.7,53.9,93,81,71,29.99,29.94,5,1,5,0.01
2013-9-5,71.5,62.3,57.6,63.9,58.4,54.4,93,87,72,29.98,29.86,6,1,6,0.55
2013-9-6,74.9,64.0,59.0,67.1,60.0,55.5,93,87,74,30.04,29.87,10,1,10,1.11
2013-9-7,77.8,64.1,57.2,65.0,58.7,53.6,93,83,61,30.04,29.95,5,2,5,0.01
2013-9-8,84.6,65.4,54.4,65.8,57.6,51.8,93,78,49,30.04,29.96,6,2,6,0.02
2013-9-9,79.6,63.6,55.3,63.7,56.7,51.8,92,80,54,30.01,29.91,5,2,5,0.00
2013-9-10,77.4,64.0,55.3,64.4,57.3,51.6,92,80,61,29.93,29.82,7,2,7,0.00
2013-9-11,94.0,69.2,55.8,69.0,59.4,52.4,92,73,43,29.87,29.80,5,2,5,0.00
2013-9-12,83.3,66.1,59.4,65.4,59.0,55.0,92,79,53,29.93,29.84,6,2,6,0.00
2013-9-13,69.7,63.2,58.3,62.6,58.9,54.3,92,86,75,29.90,29.80,6,1,6,0.00
2013-9-14,75.6,63.5,56.9,63.7,58.0,52.9,90,83,64,29.81,29.67,4,1,4,0.00
2013-9-15,67.5,60.8,55.4,62.3,57.6,52.2,93,89,82,29.74,29.65,7,2,7,0.23
2013-9-16,71.3,62.3,58.0,62.0,57.7,54.3,93,85,66,29.86,29.73,13,2,13,0.01
2013-9-17,65.9,59.9,55.3,58.7,54.7,51.1,90,83,72,29.87,29.80,5,1,5,0.00
2013-9-18,76.9,60.4,50.8,60.3,52.7,46.3,91,77,49,30.01,29.86,8,2,8,0.01
2013-9-19,83.5,60.1,46.4,60.2,51.2,43.7,92,75,43,29.97,29.68,8,2,8,0.00
2013-9-20,77.8,60.6,48.8,60.3,52.6,45.1,92,76,51,29.69,29.52,10,2,10,0.11
2013-9-21,72.4,61.3,54.0,61.1,54.6,50.7,92,80,61,29.65,29.57,8,1,8,0.01
2013-9-22,61.0,56.8,54.2,56.8,53.1,51.1,92,87,83,29.67,29.49,11,2,11,0.69
2013-9-23,64.8,56.1,46.6,56.9,51.9,43.3,92,86,70,29.90,29.67,10,2,11,0.31
2013-9-24,67.1,55.0,45.5,54.9,48.8,42.8,94,81,54,29.89,29.76,8,2,8,0.01
2013-9-25,65.9,54.0,47.2,55.7,48.4,42.9,90,82,65,29.96,29.79,8,2,8,0.06
2013-9-26,67.9,51.6,41.9,56.2,46.4,39.2,94,83,63,30.05,29.95,5,2,5,0.01
2013-9-27,57.6,53.6,46.4,53.7,50.1,43.1,91,88,82,30.04,29.77,13,3,13,0.02
2013-9-28,60.5,55.5,51.5,58.2,53.0,48.9,94,91,88,29.77,29.25,18,3,18,1.75
2013-9-29,55.4,53.1,51.1,52.2,50.3,48.4,92,90,88,29.48,29.09,14,4,14,0.12
2013-9-30,58.0,52.4,46.8,54.1,48.8,44.4,93,88,81,29.86,29.44,15,2,15,0.00
2013-10-1,60.5,51.5,45.4,52.0,47.1,42.9,94,85,65,30.04,29.84,13,3,13,0.00
2013-10-2,58.5,51.5,47.9,52.0,47.7,45.0,91,87,75,30.12,29.98,9,1,9,0.00
2013-10-3,61.9,50.5,42.3,52.5,46.4,39.5,93,86,69,30.39,30.12,5,2,5,0.00
2013-10-4,67.0,50.3,40.0,54.7,45.3,37.5,94,84,62,30.42,30.29,5,2,5,0.00
2013-10-5,72.9,52.2,41.6,59.2,46.8,39.0,94,83,60,30.29,30.07,6,2,6,0.00
2013-10-6,76.0,56.5,40.3,60.6,47.2,37.8,93,74,42,30.07,29.81,11,2,11,0.01
2013-10-7,65.2,55.7,50.4,53.3,49.3,44.9,91,80,56,29.94,29.83,13,3,13,0.00
2013-10-8,61.2,49.3,41.9,52.2,44.8,38.8,92,84,67,30.02,29.89,7,2,7,0.00
2013-10-9,60.3,47.9,37.6,50.8,43.2,35.2,94,84,67,30.08,29.89,6,2,6,0.00
2013-10-10,61.0,51.3,42.7,52.4,46.8,39.7,92,85,70,30.01,29.88,7,2,7,0.00
2013-10-11,59.8,52.5,47.5,53.3,48.2,44.0,91,86,76,30.08,30.01,5,1,6,0.00
2013-10-12,61.2,50.3,42.5,53.0,46.0,39.5,92,86,69,30.15,30.00,6,2,6,0.00
2013-10-13,61.2,47.6,38.3,51.8,42.9,35.8,94,84,66,30.31,30.15,7,3,7,0.00
2013-10-14,64.4,48.4,39.2,52.4,43.5,36.5,94,84,59,30.37,30.30,6,2,6,0.00
2013-10-15,59.9,47.0,38.7,53.3,43.6,36.0,94,88,74,30.33,30.12,6,2,6,0.00
2013-10-16,58.3,49.6,42.8,52.7,46.2,40.1,94,88,80,30.14,30.08,7,2,7,0.00
2013-10-17,58.9,49.6,42.1,51.1,45.9,39.4,93,87,74,30.22,30.14,6,2,6,0.00
2013-10-18,56.3,47.1,40.9,50.9,44.2,38.4,94,90,81,30.19,30.09,5,2,5,0.00
2013-10-19,52.0,46.7,40.0,48.5,44.2,37.8,94,91,87,30.14,30.08,4,2,4,0.00
2013-10-20,51.5,48.6,46.8,48.3,46.1,44.6,93,91,87,30.14,30.09,5,1,5,0.00
2013-10-21,52.6,49.1,47.3,49.4,46.7,45.4,94,92,87,30.11,30.04,5,1,5,0.00
2013-10-22,55.1,49.4,45.4,50.6,46.8,42.5,94,91,84,30.06,29.98,6,1,6,0.00
2013-10-23,54.4,48.1,41.0,49.9,45.5,38.6,94,91,85,30.00,29.92,4,1,4,0.00
2013-10-24,50.6,46.1,40.1,47.8,44.1,38.0,95,93,89,30.07,29.96,5,1,5,0.00
2013-10-25,54.9,49.4,41.9,50.9,47.1,39.6,94,92,86,30.26,30.07,5,1,5,0.00
2013-10-26,58.3,50.2,41.4,52.8,46.7,39.2,95,88,78,30.27,30.14,8,2,8,0.00
2013-10-27,61.0,52.2,46.8,52.0,45.5,41.0,93,79,58,30.14,29.84,12,2,12,0.00
2013-10-28,59.0,51.4,40.5,41.0,35.7,31.8,79,56,39,29.89,29.82,17,3,17,0.00
2013-10-29,56.9,42.8,33.3,46.3,37.0,30.0,90,80,64,29.97,29.88,7,3,7,0.00
2013-10-30,57.4,45.8,34.2,48.8,40.6,31.2,93,83,71,30.06,29.96,10,2,10,0.02
2013-10-31,58.0,51.6,47.7,52.3,47.6,43.8,90,86,80,30.20,30.01,10,2,12,0.00
2013-11-1,62.3,54.1,50.4,53.9,49.5,46.9,91,85,73,30.22,29.78,6,1,6,0.00
2013-11-2,52.2,49.4,41.9,50.1,44.3,37.7,93,83,70,29.83,29.41,20,4,20,0.06
2013-11-3,54.4,42.1,33.1,46.3,37.4,30.8,93,84,69,30.05,29.82,10,2,10,0.00
2013-11-4,51.5,42.3,32.6,43.7,38.0,30.2,93,85,69,30.13,29.98,7,2,7,0.00
2013-11-5,57.2,47.9,43.0,51.6,44.6,39.7,94,88,79,30.19,29.94,8,1,8,0.02
2013-11-6,53.6,47.3,42.1,48.3,44.2,40.0,94,89,80,30.26,29.97,5,1,5,0.02
2013-11-7,52.2,49.0,47.2,50.5,46.7,44.6,94,92,88,29.97,29.64,15,3,15,0.02
2013-11-8,57.4,47.5,39.1,49.9,43.4,36.5,92,86,73,30.10,29.88,8,2,10,0.00
2013-11-9,51.3,44.3,37.4,47.0,41.7,35.3,94,90,81,30.09,30.01,5,2,5,0.00
2013-11-10,51.5,47.2,44.8,47.3,44.0,41.5,93,88,82,30.08,30.02,10,1,10,0.00
2013-11-11,57.4,46.4,40.0,51.8,43.1,37.8,94,88,76,30.09,29.94,8,2,8,0.00
2013-11-12,58.0,49.3,42.5,54.2,46.8,39.9,93,91,87,30.29,29.96,9,2,9,0.02
2013-11-13,57.2,51.9,48.1,52.4,48.7,45.4,94,89,82,30.37,30.25,8,1,8,0.00
2013-11-14,50.8,46.3,39.2,47.9,43.9,36.8,94,91,88,30.25,30.00,6,1,6,0.00
2013-11-15,47.9,44.6,41.4,46.3,42.4,39.4,94,92,87,30.00,29.24,16,3,16,0.00
2013-11-16,49.9,41.5,33.8,43.5,37.5,31.9,94,86,73,29.68,29.28,8,2,8,0.00
2013-11-17,50.4,46.7,42.5,47.2,44.1,39.8,93,91,87,29.84,29.72,11,3,11,0.00
2013-11-18,51.7,49.0,45.4,50.0,47.1,42.9,94,93,91,29.83,29.47,12,2,12,0.00
2013-11-19,52.0,44.8,38.5,50.3,40.2,24.8,94,84,57,30.01,29.48,15,4,15,0.00
2013-11-20,45.4,37.4,31.5,34.5,29.4,25.8,84,73,60,30.44,30.01,9,2,9,0.00
2013-11-21,46.8,37.3,31.0,35.8,29.9,26.8,87,75,59,30.60,30.44,8,2,8,0.00
2013-11-22,49.7,37.8,31.7,40.4,31.9,27.7,88,80,65,30.59,30.39,7,2,7,0.00
2013-11-23,49.0,37.2,30.4,42.5,33.7,27.8,93,87,75,30.39,30.14,6,3,6,0.00
2013-11-24,49.9,37.5,31.7,45.2,34.9,29.7,94,90,81,30.20,30.10,6,3,6,0.00
2013-11-25,53.5,38.2,30.8,48.1,35.3,28.6,94,89,79,30.25,30.18,6,2,6,0.00
2013-11-26,52.4,41.1,31.0,47.1,37.5,29.0,94,87,76,30.21,30.03,6,2,6,0.00
2013-11-27,54.2,43.7,35.3,48.5,40.0,33.0,93,87,76,30.03,29.91,7,3,7,0.00
2013-11-28,45.4,37.5,32.2,42.9,35.4,30.2,95,92,89,30.11,29.97,6,2,6,0.00
2013-11-29,48.8,42.0,34.4,46.3,40.1,32.3,95,93,90,30.25,30.11,5,2,5,0.01
2013-11-30,49.9,47.0,43.6,46.3,44.4,41.7,93,91,85,30.26,30.03,14,3,14,0.04
2013-12-1,52.9,50.2,43.2,50.5,46.7,37.5,94,88,75,30.03,29.67,16,4,16,0.11
2013-12-2,48.1,38.5,33.7,39.2,33.4,29.2,91,82,67,30.00,29.73,10,2,10,0.01
2013-12-3,41.4,35.3,30.6,29.2,23.9,21.1,79,63,49,30.25,30.00,11,2,11,0.00
2013-12-4,40.0,31.3,24.8,31.4,24.6,21.1,87,76,63,30.29,30.22,8,3,8,0.00
2013-12-5,36.9,27.1,21.1,31.2,23.0,17.7,91,85,66,30.26,30.13,8,2,8,0.00
2013-12-6,36.5,29.9,25.2,20.9,16.0,11.2,67,56,48,30.17,30.07,16,5,16,0.00
2013-12-7,33.1,24.9,16.9,16.8,11.7,7.2,79,57,44,30.36,30.16,11,3,11,0.00
2013-12-8,35.5,23.8,15.5,24.7,17.0,9.6,82,75,62,30.52,30.36,7,3,7,0.00
2013-12-9,32.2,26.4,17.8,26.5,21.2,13.7,86,81,73,30.52,30.43,6,2,6,0.00
2013-12-10,40.3,33.9,29.5,35.2,29.9,26.5,89,85,80,30.43,30.35,5,1,5,0.00
2013-12-11,42.7,31.7,26.1,38.7,28.9,23.9,93,89,84,30.36,30.10,6,2,6,0.00
2013-12-12,43.2,36.6,28.1,39.5,34.1,25.8,94,91,83,30.10,29.96,9,0,9,0.01
2013-12-13,47.9,44.5,41.0,45.6,42.5,39.2,97,93,91,30.36,30.05,10,0,10,0.00
2013-12-14,47.9,44.9,42.1,47.3,42.8,40.2,99,92,89,30.38,30.25,13,2,13,0.00
2013-12-15,52.2,47.3,44.3,49.5,45.1,42.0,96,92,90,30.40,30.24,11,2,11,0.00
2013-12-16,50.2,43.1,36.5,48.8,41.0,34.4,95,92,86,30.44,30.22,5,2,5,0.00
2013-12-17,43.7,41.0,38.5,43.5,40.0,36.9,99,96,94,30.22,30.06,5,1,5,0.00
2013-12-18,50.4,42.4,37.1,47.3,38.3,32.6,99,86,71,30.10,29.96,5,0,5,0.05
2013-12-19,42.7,36.7,31.7,33.9,28.8,24.1,87,73,58,30.28,30.09,9,2,9,0.00
2013-12-20,42.1,36.7,31.5,40.2,34.4,28.0,93,91,86,30.14,29.64,15,2,15,0.09
2013-12-21,45.7,43.5,41.4,43.4,41.5,39.5,94,93,91,30.11,29.78,4,0,4,0.11
2013-12-22,50.0,47.5,44.5,48.2,45.7,42.6,94,93,92,30.23,30.09,11,1,11,0.25
2013-12-23,54.7,46.7,35.6,50.4,43.6,33.2,94,89,70,30.45,30.05,12,4,17,0.07
2013-12-24,46.4,38.0,31.7,43.5,35.9,29.9,95,92,88,30.56,30.45,7,3,7,0.01
2013-12-25,44.6,37.6,31.1,40.7,35.2,29.2,94,91,85,30.48,30.32,7,2,7,0.00
2013-12-26,42.8,35.6,31.1,41.0,33.7,29.2,95,93,90,30.35,30.15,6,1,7,0.01
2013-12-27,46.4,38.9,30.6,44.6,37.1,28.6,95,93,92,30.31,30.04,9,2,9,0.01
2013-12-28,49.3,41.4,34.9,45.9,39.5,33.0,95,93,88,30.46,30.31,6,2,6,0.01
2013-12-29,46.6,40.6,34.9,44.2,38.7,33.3,95,93,89,30.42,30.26,6,2,6,0.00
2013-12-30,44.5,40.7,36.0,42.6,39.0,34.1,95,94,92,30.26,30.06,5,1,6,0.01
2013-12-31,47.2,43.9,40.5,45.0,41.9,38.6,94,92,91,30.32,30.13,6,1,6,0.00
2014-1-1,45.4,42.3,37.8,43.0,40.5,35.9,95,93,91,30.35,30.19,6,1,6,0.02
2014-1-2,51.3,45.8,41.9,46.3,43.2,40.2,94,91,80,30.19,29.82,11,2,11,0.20